Regional Weather Roundup
Issued by NWS

Home | Current Version | Previous Version | Text Only | Print | Product List | Glossary Off
Versions: 1 2 3 4 5 6 7 8 9 10 11 12 13 14 15 16 17 18 19 20 21 22 23 24 25 26 27 28 29 30 31 32 33 34 35 36 37 38 39 40 41 42 43 44 45 46 47 48 49 50

146
ASUS43 KLMK 022210
RWRKY
KENTUCKY REGIONAL WEATHER ROUNDUP
NATIONAL WEATHER SERVICE LOUISVILLE KY
500 PM EST FRI DEC 02 2016

NOTE "FAIR" INDICATES FEW OR NO CLOUDS BELOW 12,000 FEET
WITH NO SIGNIFICANT WEATHER AND/OR OBSTRUCTIONS TO VISIBILITY.

KYZ001>023-026-027-061>063-070>075-022300-
WESTERN AND SOUTH CENTRAL KENTUCKY

CITY           SKY/WX    TMP DP  RH WIND       PRES   REMARKS
PADUCAH        CLEAR     52  28  39 W3        30.28R
HENDERSON      CLEAR     45  30  57 NW6       30.28R
OWENSBORO      CLEAR     45  32  60 NW7       30.28R
HOPKINSVILLE   CLEAR     50  30  46 N5        30.27R
BOWLING GREEN  CLEAR     51  27  39 NW6       30.27R
GLASGOW        CLEAR     49  29  46 W3        30.25R
$$

KYZ024-025-028>034-038-045-046-053-022300-
NORTH CENTRAL KENTUCKY

CITY           SKY/WX    TMP DP  RH WIND       PRES   REMARKS
LOUISVILLE/SDF MOCLDY    46  28  49 W9        30.25S
LOUISVILLE/LOU CLOUDY    45  29  53 N7        30.26S
FORT KNOX      CLEAR     43  30  59 NW5       30.23R
$$

KYZ035>037-039>044-047>052-055>060-089>105-022300-
NORTHEAST KENTUCKY

CITY           SKY/WX    TMP DP  RH WIND       PRES   REMARKS
LEXINGTON      CLEAR     40  29  64 N8        30.24S WCI  34
COVINGTON      CLOUDY    39  30  70 W9        30.24R WCI  33
FRANKFORT      CLOUDY    42  29  59 NW6       30.24S
$$

KYZ054-064>069-076>088-106>120-022300-
SOUTHEAST KENTUCKY

CITY           SKY/WX    TMP DP  RH WIND       PRES   REMARKS
JACKSON        CLEAR     42  29  59 VRB5      30.20F
LONDON         CLEAR     48  25  40 W9        30.20S
SOMERSET       CLEAR     46  27  46 NW5       30.24R
MIDDLESBORO    CLEAR     50  25  36 W3        30.21S
MONTICELLO     CLEAR     48  30  49 W7        30.25R
$$





USA.gov is the U.S. government's official web portal to all federal, state and local government web resources and services.